Date,TemperatureHighF,TemperatureAvgF,TemperatureLowF,DewpointHighF,DewpointAvgF,DewpointLowF,HumidityHigh,HumidityAvg,HumidityLow,PressureMaxIn,PressureMinIn,WindSpeedMaxMPH,WindSpeedAvgMPH,GustSpeedMaxMPH,PrecipitationSumIn
2013-9-1,85,76,71,78,72,68,93,88,76,29.82,29.75,6,1,13,0.10
2013-9-2,78,71,68,74,69,66,94,92,84,29.78,29.68,11,0,15,0.79
2013-9-3,80,71,59,70,63,57,94,79,50,29.89,29.70,10,2,13,0.24
2013-9-4,81,66,56,65,59,54,94,80,49,30.00,29.88,10,2,13,0.01
2013-9-5,77,63,50,65,54,47,94,76,38,30.15,29.93,10,2,15,0.00
2013-9-6,74,56,41,55,46,39,94,74,34,30.25,30.13,7,1,8,0.01
2013-9-7,78,59,40,62,51,39,94,79,42,30.13,29.90,7,1,8,0.01
2013-9-8,81,66,49,68,58,47,94,77,39,30.07,29.82,12,3,18,0.00
2013-9-9,75,60,41,63,53,40,94,80,55,30.22,30.07,7,1,9,0.00
2013-9-10,87,74,65,77,69,61,93,86,71,30.14,30.03,6,1,10,0.00
2013-9-11,93,78,65,82,72,63,94,84,64,30.10,29.96,5,1,9,0.00
2013-9-12,86,73,66,78,69,64,93,90,73,29.97,29.67,15,1,23,0.39
2013-9-13,75,66,55,64,59,49,94,80,55,29.86,29.63,16,3,23,0.05
2013-9-14,64,55,41,51,47,39,93,76,59,30.14,29.86,16,4,20,0.00
2013-9-15,73,53,37,59,47,35,94,81,46,30.22,30.07,5,1,8,0.00
2013-9-16,71,59,50,60,53,47,94,82,55,30.25,30.02,8,2,14,0.05
2013-9-17,68,52,37,49,43,35,94,73,41,30.42,30.24,8,2,13,0.00
2013-9-18,72,51,34,55,43,32,94,78,45,30.35,30.18,7,1,9,0.00
2013-9-19,78,55,36,60,47,34,94,78,45,30.19,30.06,6,1,10,0.01
2013-9-20,81,60,42,65,53,40,94,81,46,30.08,29.95,6,1,9,0.00
2013-9-21,78,64,48,64,58,47,94,82,49,29.99,29.65,8,1,16,0.56
2013-9-22,68,60,53,60,51,43,94,74,47,29.92,29.65,13,4,18,0.16
2013-9-23,66,54,41,48,44,39,93,70,49,30.05,29.92,11,4,15,0.00
2013-9-24,76,52,34,51,44,32,94,76,37,30.06,29.89,10,2,14,0.00
2013-9-25,77,54,36,57,46,34,94,77,38,29.97,29.87,7,1,10,0.01
2013-9-26,74,55,40,61,50,38,94,83,51,30.09,29.93,6,1,10,0.00
2013-9-27,71,56,42,56,50,40,94,81,54,30.26,30.09,5,0,7,0.01
2013-9-28,74,60,46,58,52,44,94,78,46,30.31,30.23,9,1,10,0.00
2013-9-29,75,56,40,59,49,38,94,82,50,30.23,30.06,4,0,6,0.00
2013-9-30,75,55,40,59,48,38,94,80,48,30.08,29.96,5,0,8,0.01